{"data":{"norad_id":69881,"epoch":"2026-09-20T04:01:33.148128Z","epoch_age_seconds":50395,"freshness":"FRESH","line1":"1 69881U 26156N   26263.16774477  .00000241  00000+0  29920-4 0  9996","line2":"2 69881  97.7404 162.2401 0002865 225.4279 134.6706 14.91083849 11155","mean_motion":14.91083849,"eccentricity":0.0002865,"inclination_deg":97.7404,"raan_deg":162.2401,"arg_perigee_deg":225.4279,"mean_anomaly_deg":134.6706,"bstar":2.992e-5,"rev_number":1115,"period_min":96.574045850322,"perigee_km":592.55703651333,"apogee_km":596.5523888647,"semimajor_km":6972.691712689,"source":"CELESTRAK","updated_at":"2026-09-20T09:00:25.165523Z"}}